"Sample Date","Sample Time","Sample Value","Units","Flow Rate","Number Channels","Micron Size 0","Counts/Channel 0","Micron Size 1","Counts/Channel 1","Micron Size 2","Counts/Channel 2","Micron Size 3","Counts/Channel 3","Micron Size 4","Counts/Channel 4","Micron Size 5","Counts/Channel 5","Micron Size 6","Counts/Channel 6","Micron Size 7","Counts/Channel 7","Micron Size 8","Counts/Channel 8","Micron Size 9","Counts/Channel 9","Micron Size 10","Counts/Channel 10","Micron Size 11","Counts/Channel 11","Micron Size 12","Counts/Channel 12","Micron Size 13","Counts/Channel 13","Micron Size 14","Counts/Channel 14","Micron Size 15","Counts/Channel 15","Micron Size 16","Counts/Channel 16","Micron Size 17","Counts/Channel 17","Micron Size 18","Counts/Channel 18","Micron Size 19","Counts/Channel 19","Micron Size 20","Counts/Channel 20","Micron Size 21","Counts/Channel 21","Micron Size 22","Counts/Channel 22","Micron Size 23","Counts/Channel 23","Micron Size 24","Counts/Channel 24","Micron Size 25","Counts/Channel 25","Micron Size 26","Counts/Channel 26","Micron Size 27","Counts/Channel 27","Micron Size 28","Counts/Channel 28","Micron Size 29","Counts/Channel 29","Micron Size 30","Counts/Channel 30","Micron Size 31","Counts/Channel 31"
"05/12/08","01:00:04",8951.000,"cc",28309.383,6,0.100,7567.000,0.200,1297.000,0.300,75.000,0.500,11.000,1.000,1.000,5.000,0
"05/12/08","01:00:10",6476.000,"cc",28324.356,6,0.100,5461.000,0.200,957.000,0.300,49.000,0.500,9.000,1.000,0,5.000,0
"05/12/08","01:00:16",6764.000,"cc",28314.440,6,0.100,5686.000,0.200,990.000,0.300,79.000,0.500,9.000,1.000,0,5.000,0
"05/12/08","01:00:22",5587.000,"cc",28255.645,6,0.100,4673.000,0.200,835.000,0.300,69.000,0.500,10.000,1.000,0,5.000,0
"05/12/08","01:00:28",7051.000,"cc",28309.492,6,0.100,5913.000,0.200,1050.000,0.300,80.000,0.500,8.000,1.000,0,5.000,0
"05/12/08","01:00:34",9783.000,"cc",28334.168,6,0.100,8275.000,0.200,1391.000,0.300,105.000,0.500,11.000,1.000,1.000,5.000,0
"05/12/08","01:00:40",5810.000,"cc",28292.377,6,0.100,4852.000,0.200,864.000,0.300,85.000,0.500,9.000,1.000,0,5.000,0
"05/12/08","01:00:46",7107.000,"cc",28338.766,6,0.100,5981.000,0.200,1052.000,0.300,61.000,0.500,13.000,1.000,0,5.000,0
"05/12/08","01:00:52",5619.000,"cc",28346.098,6,0.100,4696.000,0.200,849.000,0.300,67.000,0.500,7.000,1.000,0,5.000,0
"05/12/08","01:00:58",6297.000,"cc",28326.182,6,0.100,5274.000,0.200,931.000,0.300,79.000,0.500,13.000,1.000,0,5.000,0
"05/12/08","01:01:04",8482.000,"cc",28272.357,6,0.100,7137.000,0.200,1218.000,0.300,109.000,0.500,16.000,1.000,2.000,5.000,0
"05/12/08","01:01:10",13550.000,"cc",28333.486,6,0.100,11522.000,0.200,1914.000,0.300,103.000,0.500,10.000,1.000,1.000,5.000,0
"05/12/08","01:01:16",16318.000,"cc",28298.447,6,0.100,13978.000,0.200,2217.000,0.300,114.000,0.500,9.000,1.000,0,5.000,0
"05/12/08","01:01:22",10674.000,"cc",28316.273,6,0.100,9030.000,0.200,1532.000,0.300,97.000,0.500,15.000,1.000,0,5.000,0
"05/12/08","01:01:28",8333.000,"cc",28285.008,6,0.100,7077.000,0.200,1186.000,0.300,59.000,0.500,11.000,1.000,0,5.000,0
"05/12/08","01:01:34",7872.000,"cc",28334.584,6,0.100,6633.000,0.200,1154.000,0.300,70.000,0.500,14.000,1.000,1.000,5.000,0
"05/12/08","01:01:40",10172.000,"cc",28344.688,6,0.100,8604.000,0.200,1459.000,0.300,100.000,0.500,9.000,1.000,0,5.000,0
"05/12/08","01:01:46",12894.000,"cc",28316.900,6,0.100,10913.000,0.200,1852.000,0.300,115.000,0.500,12.000,1.000,2.000,5.000,0
"05/12/08","01:01:52",9142.000,"cc",28302.211,6,0.100,7761.000,0.200,1273.000,0.300,98.000,0.500,10.000,1.000,0,5.000,0
"05/12/08","01:01:58",7726.000,"cc",28300.398,6,0.100,6585.000,0.200,1067.000,0.300,66.000,0.500,8.000,1.000,0,5.000,0
"05/12/08","01:02:04",8869.000,"cc",28290.229,6,0.100,7537.000,0.200,1242.000,0.300,82.000,0.500,8.000,1.000,0,5.000,0
"05/12/08","01:02:10",6185.000,"cc",28338.984,6,0.100,5189.000,0.200,911.000,0.300,73.000,0.500,12.000,1.000,0,5.000,0
"05/12/08","01:02:16",6848.000,"cc",28325.078,6,0.100,5761.000,0.200,997.000,0.300,81.000,0.500,8.000,1.000,1.000,5.000,0
"05/12/08","01:02:22",8311.000,"cc",28266.328,6,0.100,7043.000,0.200,1174.000,0.300,83.000,0.500,11.000,1.000,0,5.000,0
"05/12/08","01:02:28",9035.000,"cc",28298.559,6,0.100,7642.000,0.200,1312.000,0.300,71.000,0.500,8.000,1.000,2.000,5.000,0
"05/12/08","01:02:34",6867.000,"cc",28352.322,6,0.100,5821.000,0.200,983.000,0.300,59.000,0.500,4.000,1.000,0,5.000,0
"05/12/08","01:02:40",5193.000,"cc",28330.553,6,0.100,4364.000,0.200,765.000,0.300,58.000,0.500,6.000,1.000,0,5.000,0
"05/12/08","01:02:46",8817.000,"cc",28332.418,6,0.100,7507.000,0.200,1231.000,0.300,72.000,0.500,7.000,1.000,0,5.000,0
"05/12/08","01:02:52",11497.000,"cc",28312.762,6,0.100,9821.000,0.200,1572.000,0.300,92.000,0.500,12.000,1.000,0,5.000,0
"05/12/08","01:02:58",11218.000,"cc",28315.590,6,0.100,9588.000,0.200,1514.000,0.300,101.000,0.500,14.000,1.000,1.000,5.000,0
"05/12/08","01:03:04",20709.000,"cc",28326.199,6,0.100,17832.000,0.200,2712.000,0.300,154.000,0.500,10.000,1.000,1.000,5.000,0
"05/12/08","01:03:10",15294.000,"cc",28292.090,6,0.100,13062.000,0.200,2113.000,0.300,107.000,0.500,9.000,1.000,3.000,5.000,0
"05/12/08","01:03:16",14069.000,"cc",28286.900,6,0.100,12015.000,0.200,1927.000,0.300,117.000,0.500,10.000,1.000,0,5.000,0
"05/12/08","01:03:22",7731.000,"cc",28311.736,6,0.100,6543.000,0.200,1122.000,0.300,57.000,0.500,9.000,1.000,0,5.000,0
"05/12/08","01:03:28",8330.000,"cc",28316.043,6,0.100,7148.000,0.200,1097.000,0.300,81.000,0.500,4.000,1.000,0,5.000,0
"05/12/08","01:03:34",13014.000,"cc",28327.865,6,0.100,11197.000,0.200,1724.000,0.300,84.000,0.500,9.000,1.000,0,5.000,0
"05/12/08","01:03:40",10119.000,"cc",28333.121,6,0.100,8656.000,0.200,1373.000,0.300,84.000,0.500,6.000,1.000,0,5.000,0
"05/12/08","01:03:46",5714.000,"cc",28268.232,6,0.100,4848.000,0.200,803.000,0.300,52.000,0.500,10.000,1.000,1.000,5.000,0
"05/12/08","01:03:52",12909.000,"cc",28349.707,6,0.100,11038.000,0.200,1757.000,0.300,101.000,0.500,13.000,1.000,0,5.000,0
"05/12/08","01:03:58",16242.000,"cc",28277.086,6,0.100,14041.000,0.200,2099.000,0.300,92.000,0.500,10.000,1.000,0,5.000,0
"05/12/08","01:04:04",17212.000,"cc",28307.205,6,0.100,14791.000,0.200,2300.000,0.300,116.000,0.500,5.000,1.000,0,5.000,0
"05/12/08","01:04:10",21239.000,"cc",28336.313,6,0.100,18191.000,0.200,2865.000,0.300,171.000,0.500,12.000,1.000,0,5.000,0
"05/12/08","01:04:16",19119.000,"cc",28307.299,6,0.100,16479.000,0.200,2494.000,0.300,133.000,0.500,13.000,1.000,0,5.000,0
"05/12/08","01:04:22",14637.000,"cc",28258.258,6,0.100,12531.000,0.200,1975.000,0.300,118.000,0.500,13.000,1.000,0,5.000,0
"05/12/08","01:04:28",13902.000,"cc",28341.863,6,0.100,11909.000,0.200,1876.000,0.300,110.000,0.500,7.000,1.000,0,5.000,0
"05/12/08","01:04:34",14799.000,"cc",28360.742,6,0.100,12674.000,0.200,2013.000,0.300,101.000,0.500,11.000,1.000,0,5.000,0
"05/12/08","01:04:40",24629.000,"cc",28307.193,6,0.100,21282.000,0.200,3199.000,0.300,146.000,0.500,1.000,1.000,1.000,5.000,0
"05/12/08","01:04:46",21821.000,"cc",28358.570,6,0.100,18735.000,0.200,2945.000,0.300,129.000,0.500,11.000,1.000,1.000,5.000,0
"05/12/08","01:04:52",15797.000,"cc",28296.504,6,0.100,13592.000,0.200,2098.000,0.300,100.000,0.500,6.000,1.000,1.000,5.000,0
"05/12/08","01:04:58",12620.000,"cc",28317.662,6,0.100,10812.000,0.200,1689.000,0.300,114.000,0.500,5.000,1.000,0,5.000,0
"05/12/08","01:05:04",15885.000,"cc",28331.637,6,0.100,13627.000,0.200,2123.000,0.300,128.000,0.500,7.000,1.000,0,5.000,0
"05/12/08","01:05:10",12722.000,"cc",28254.395,6,0.100,10921.000,0.200,1696.000,0.300,99.000,0.500,6.000,1.000,0,5.000,0
"05/12/08","01:05:16",10835.000,"cc",28341.676,6,0.100,9266.000,0.200,1482.000,0.300,79.000,0.500,8.000,1.000,0,5.000,0
"05/12/08","01:05:22",11238.000,"cc",28317.340,6,0.100,9559.000,0.200,1592.000,0.300,79.000,0.500,8.000,1.000,0,5.000,0
"05/12/08","01:05:28",12345.000,"cc",28303.764,6,0.100,10638.000,0.200,1598.000,0.300,101.000,0.500,8.000,1.000,0,5.000,0
"05/12/08","01:05:34",12454.000,"cc",28301.219,6,0.100,10716.000,0.200,1631.000,0.300,97.000,0.500,10.000,1.000,0,5.000,0
"05/12/08","01:05:40",16478.000,"cc",28322.137,6,0.100,14161.000,0.200,2177.000,0.300,122.000,0.500,18.000,1.000,0,5.000,0
"05/12/08","01:05:46",12917.000,"cc",28333.150,6,0.100,11090.000,0.200,1733.000,0.300,81.000,0.500,13.000,1.000,0,5.000,0
"05/12/08","01:05:52",17362.000,"cc",28307.861,6,0.100,14920.000,0.200,2300.000,0.300,127.000,0.500,13.000,1.000,2.000,5.000,0
"05/12/08","01:05:58",25399.000,"cc",28303.055,6,0.100,21827.000,0.200,3398.000,0.300,162.000,0.500,11.000,1.000,1.000,5.000,0
"05/12/08","01:06:04",25014.000,"cc",28296.928,6,0.100,21550.000,0.200,3296.000,0.300,151.000,0.500,17.000,1.000,0,5.000,0
"05/12/08","01:06:10",16478.000,"cc",28315.863,6,0.100,14167.000,0.200,2177.000,0.300,124.000,0.500,10.000,1.000,0,5.000,0
"05/12/08","01:06:16",16476.000,"cc",28307.525,6,0.100,14151.000,0.200,2192.000,0.300,128.000,0.500,4.000,1.000,1.000,5.000,0
"05/12/08","01:06:22",11020.000,"cc",28334.522,6,0.100,9358.000,0.200,1561.000,0.300,90.000,0.500,10.000,1.000,1.000,5.000,0
"05/12/08","01:06:28",7626.000,"cc",28305.111,6,0.100,6471.000,0.200,1082.000,0.300,60.000,0.500,12.000,1.000,1.000,5.000,0
"05/12/08","01:06:34",11038.000,"cc",28356.449,6,0.100,9441.000,0.200,1489.000,0.300,97.000,0.500,10.000,1.000,1.000,5.000,0
"05/12/08","01:06:40",15652.000,"cc",28363.441,6,0.100,13411.000,0.200,2098.000,0.300,127.000,0.500,15.000,1.000,1.000,5.000,0
"05/12/08","01:06:46",16756.000,"cc",28321.522,6,0.100,14365.000,0.200,2252.000,0.300,126.000,0.500,9.000,1.000,4.000,5.000,0
"05/12/08","01:06:52",15473.000,"cc",28325.135,6,0.100,13276.000,0.200,2044.000,0.300,135.000,0.500,16.000,1.000,2.000,5.000,0
"05/12/08","01:06:58",14769.000,"cc",28309.029,6,0.100,12707.000,0.200,1942.000,0.300,111.000,0.500,9.000,1.000,0,5.000,0
"05/12/08","01:07:04",11056.000,"cc",28315.387,6,0.100,9370.000,0.200,1586.000,0.300,91.000,0.500,8.000,1.000,1.000,5.000,0
"05/12/08","01:07:10",20075.000,"cc",28340.014,6,0.100,17144.000,0.200,2749.000,0.300,176.000,0.500,6.000,1.000,0,5.000,0
"05/12/08","01:07:16",18577.000,"cc",28283.369,6,0.100,15908.000,0.200,2519.000,0.300,143.000,0.500,7.000,1.000,0,5.000,0
"05/12/08","01:07:22",11257.000,"cc",28288.002,6,0.100,9510.000,0.200,1625.000,0.300,112.000,0.500,10.000,1.000,0,5.000,0
"05/12/08","01:07:28",15366.000,"cc",28307.148,6,0.100,13063.000,0.200,2144.000,0.300,147.000,0.500,12.000,1.000,0,5.000,0
"05/12/08","01:07:34",8066.000,"cc",28335.076,6,0.100,6798.000,0.200,1179.000,0.300,83.000,0.500,6.000,1.000,0,5.000,0
"05/12/08","01:07:40",9028.000,"cc",28366.541,6,0.100,7638.000,0.200,1298.000,0.300,84.000,0.500,8.000,1.000,0,5.000,0
"05/12/08","01:07:46",12280.000,"cc",28300.525,6,0.100,10368.000,0.200,1792.000,0.300,108.000,0.500,12.000,1.000,0,5.000,0
"05/12/08","01:07:52",21225.000,"cc",28333.578,6,0.100,18130.000,0.200,2908.000,0.300,175.000,0.500,11.000,1.000,1.000,5.000,0
"05/12/08","01:07:58",9510.000,"cc",28313.375,6,0.100,8003.000,0.200,1390.000,0.300,105.000,0.500,12.000,1.000,0,5.000,0
"05/12/08","01:08:04",7882.000,"cc",28255.859,6,0.100,6584.000,0.200,1198.000,0.300,90.000,0.500,10.000,1.000,0,5.000,0
"05/12/08","01:08:10",10053.000,"cc",28346.924,6,0.100,8422.000,0.200,1519.000,0.300,98.000,0.500,14.000,1.000,0,5.000,0
"05/12/08","01:08:16",12352.000,"cc",28350.615,6,0.100,10477.000,0.200,1764.000,0.300,97.000,0.500,13.000,1.000,1.000,5.000,0
"05/12/08","01:08:22",11319.000,"cc",28308.738,6,0.100,9534.000,0.200,1671.000,0.300,103.000,0.500,11.000,1.000,0,5.000,0
"05/12/08","01:08:28",6531.000,"cc",28298.172,6,0.100,5416.000,0.200,1015.000,0.300,86.000,0.500,14.000,1.000,0,5.000,0
"05/12/08","01:08:34",8754.000,"cc",28326.393,6,0.100,7368.000,0.200,1293.000,0.300,83.000,0.500,10.000,1.000,0,5.000,0
"05/12/08","01:08:40",15190.000,"cc",28356.053,6,0.100,12878.000,0.200,2171.000,0.300,125.000,0.500,16.000,1.000,0,5.000,0
"05/12/08","01:08:46",12346.000,"cc",28364.984,6,0.100,10422.000,0.200,1797.000,0.300,115.000,0.500,12.000,1.000,0,5.000,0
"05/12/08","01:08:52",9961.000,"cc",28229.248,6,0.100,8361.000,0.200,1483.000,0.300,107.000,0.500,10.000,1.000,0,5.000,0
"05/12/08","01:08:58",11775.000,"cc",28293.740,6,0.100,9872.000,0.200,1781.000,0.300,112.000,0.500,9.000,1.000,1.000,5.000,0
"05/12/08","01:09:04",11422.000,"cc",28386.102,6,0.100,9678.000,0.200,1632.000,0.300,106.000,0.500,6.000,1.000,0,5.000,0
"05/12/08","01:09:10",10157.000,"cc",28284.965,6,0.100,8629.000,0.200,1427.000,0.300,94.000,0.500,7.000,1.000,0,5.000,0
"05/12/08","01:09:16",12056.000,"cc",28330.840,6,0.100,10205.000,0.200,1755.000,0.300,89.000,0.500,6.000,1.000,1.000,5.000,0
"05/12/08","01:09:22",17016.000,"cc",28358.559,6,0.100,14451.000,0.200,2406.000,0.300,147.000,0.500,11.000,1.000,1.000,5.000,0
"05/12/08","01:09:28",13304.000,"cc",28313.223,6,0.100,11284.000,0.200,1899.000,0.300,114.000,0.500,7.000,1.000,0,5.000,0
"05/12/08","01:09:34",12258.000,"cc",28310.434,6,0.100,10394.000,0.200,1751.000,0.300,108.000,0.500,4.000,1.000,1.000,5.000,0
"05/12/08","01:09:40",12583.000,"cc",28305.613,6,0.100,10686.000,0.200,1778.000,0.300,111.000,0.500,7.000,1.000,1.000,5.000,0
"05/12/08","01:09:46",28269.000,"cc",28336.484,6,0.100,24029.000,0.200,3989.000,0.300,237.000,0.500,12.000,1.000,2.000,5.000,0
"05/12/08","01:09:52",36980.000,"cc",28316.463,6,0.100,31714.000,0.200,4960.000,0.300,299.000,0.500,7.000,1.000,0,5.000,0
"05/12/08","01:09:58",29520.000,"cc",28283.135,6,0.100,25136.000,0.200,4143.000,0.300,231.000,0.500,10.000,1.000,0,5.000,0
"05/12/08","01:10:04",21801.000,"cc",28342.895,6,0.100,18472.000,0.200,3124.000,0.300,201.000,0.500,4.000,1.000,0,5.000,0
"05/12/08","01:10:10",21809.000,"cc",28307.164,6,0.100,18598.000,0.200,3033.000,0.300,174.000,0.500,4.000,1.000,0,5.000,0
"05/12/08","01:10:16",20801.000,"cc",28337.914,6,0.100,17650.000,0.200,2960.000,0.300,182.000,0.500,9.000,1.000,0,5.000,0
"05/12/08","01:10:22",12098.000,"cc",28331.035,6,0.100,10246.000,0.200,1729.000,0.300,111.000,0.500,12.000,1.000,0,5.000,0
"05/12/08","01:10:28",13029.000,"cc",28346.334,6,0.100,10963.000,0.200,1927.000,0.300,133.000,0.500,6.000,1.000,0,5.000,0
"05/12/08","01:10:34",17517.000,"cc",28328.324,6,0.100,14862.000,0.200,2505.000,0.300,143.000,0.500,7.000,1.000,0,5.000,0
"05/12/08","01:10:40",14630.000,"cc",28268.141,6,0.100,12423.000,0.200,2086.000,0.300,117.000,0.500,4.000,1.000,0,5.000,0
"05/12/08","01:10:46",13401.000,"cc",28320.594,6,0.100,11347.000,0.200,1933.000,0.300,111.000,0.500,9.000,1.000,1.000,5.000,0
"05/12/08","01:10:52",12305.000,"cc",28355.672,6,0.100,10294.000,0.200,1866.000,0.300,134.000,0.500,11.000,1.000,0,5.000,0
"05/12/08","01:10:58",7283.000,"cc",28308.242,6,0.100,6054.000,0.200,1124.000,0.300,91.000,0.500,13.000,1.000,1.000,5.000,0
"05/12/08","01:11:04",7528.000,"cc",28292.594,6,0.100,6333.000,0.200,1115.000,0.300,74.000,0.500,6.000,1.000,0,5.000,0
"05/12/08","01:11:10",9889.000,"cc",28318.736,6,0.100,8358.000,0.200,1435.000,0.300,85.000,0.500,10.000,1.000,1.000,5.000,0
"05/12/08","01:11:16",17361.000,"cc",28323.344,6,0.100,14754.000,0.200,2433.000,0.300,168.000,0.500,6.000,1.000,0,5.000,0
"05/12/08","01:11:22",21258.000,"cc",28269.897,6,0.100,18002.000,0.200,3049.000,0.300,202.000,0.500,5.000,1.000,0,5.000,0
"05/12/08","01:11:28",21060.000,"cc",28317.357,6,0.100,18001.000,0.200,2879.000,0.300,170.000,0.500,10.000,1.000,0,5.000,0
"05/12/08","01:11:34",19074.000,"cc",28335.766,6,0.100,16186.000,0.200,2700.000,0.300,180.000,0.500,8.000,1.000,0,5.000,0
"05/12/08","01:11:40",24044.000,"cc",28287.895,6,0.100,20314.000,0.200,3481.000,0.300,235.000,0.500,14.000,1.000,0,5.000,0
"05/12/08","01:11:46",19145.000,"cc",28305.133,6,0.100,16087.000,0.200,2853.000,0.300,194.000,0.500,11.000,1.000,0,5.000,0
"05/12/08","01:11:52",10282.000,"cc",28341.625,6,0.100,8619.000,0.200,1541.000,0.300,115.000,0.500,6.000,1.000,1.000,5.000,0
"05/12/08","01:11:58",13811.000,"cc",28310.498,6,0.100,11617.000,0.200,2056.000,0.300,132.000,0.500,5.000,1.000,1.000,5.000,0
"05/12/08","01:12:04",16615.000,"cc",28317.156,6,0.100,13942.000,0.200,2493.000,0.300,173.000,0.500,5.000,1.000,2.000,5.000,0
"05/12/08","01:12:10",12575.000,"cc",28337.713,6,0.100,10547.000,0.200,1895.000,0.300,125.000,0.500,7.000,1.000,1.000,5.000,0
"05/12/08","01:12:16",16423.000,"cc",28312.965,6,0.100,13869.000,0.200,2373.000,0.300,169.000,0.500,11.000,1.000,1.000,5.000,0
"05/12/08","01:12:22",17527.000,"cc",28296.346,6,0.100,14804.000,0.200,2532.000,0.300,181.000,0.500,9.000,1.000,1.000,5.000,0
"05/12/08","01:12:28",17061.000,"cc",28301.717,6,0.100,14333.000,0.200,2549.000,0.300,172.000,0.500,7.000,1.000,0,5.000,0
"05/12/08","01:12:34",10265.000,"cc",28338.383,6,0.100,8612.000,0.200,1541.000,0.300,106.000,0.500,6.000,1.000,0,5.000,0
"05/12/08","01:12:40",10544.000,"cc",28360.742,6,0.100,8871.000,0.200,1559.000,0.300,101.000,0.500,13.000,1.000,0,5.000,0
"05/12/08","01:12:46",15188.000,"cc",28361.055,6,0.100,12758.000,0.200,2283.000,0.300,139.000,0.500,7.000,1.000,1.000,5.000,0
"05/12/08","01:12:52",16939.000,"cc",28245.477,6,0.100,14224.000,0.200,2520.000,0.300,190.000,0.500,5.000,1.000,0,5.000,0
"05/12/08","01:12:58",15474.000,"cc",28283.932,6,0.100,12986.000,0.200,2326.000,0.300,150.000,0.500,11.000,1.000,1.000,5.000,0
"05/12/08","01:13:04",13920.000,"cc",28278.106,6,0.100,11745.000,0.200,2036.000,0.300,127.000,0.500,10.000,1.000,2.000,5.000,0
"05/12/08","01:13:10",15265.000,"cc",28363.893,6,0.100,12902.000,0.200,2210.000,0.300,146.000,0.500,6.000,1.000,1.000,5.000,0
"05/12/08","01:13:16",16154.000,"cc",28307.217,6,0.100,13608.000,0.200,2363.000,0.300,174.000,0.500,9.000,1.000,0,5.000,0
"05/12/08","01:13:22",16363.000,"cc",28331.674,6,0.100,13823.000,0.200,2373.000,0.300,156.000,0.500,11.000,1.000,0,5.000,0
"05/12/08","01:13:28",17813.000,"cc",28392.791,6,0.100,15006.000,0.200,2639.000,0.300,161.000,0.500,7.000,1.000,0,5.000,0
"05/12/08","01:13:34",17460.000,"cc",28299.629,6,0.100,14790.000,0.200,2483.000,0.300,179.000,0.500,8.000,1.000,0,5.000,0
"05/12/08","01:13:40",16755.000,"cc",28257.840,6,0.100,14104.000,0.200,2480.000,0.300,162.000,0.500,9.000,1.000,0,5.000,0
"05/12/08","01:13:46",32847.000,"cc",28282.158,6,0.100,27712.000,0.200,4797.000,0.300,327.000,0.500,10.000,1.000,1.000,5.000,0
"05/12/08","01:13:52",36668.000,"cc",28340.205,6,0.100,30942.000,0.200,5352.000,0.300,364.000,0.500,10.000,1.000,0,5.000,0
"05/12/08","01:13:58",27912.000,"cc",28324.613,6,0.100,23481.000,0.200,4151.000,0.300,268.000,0.500,12.000,1.000,0,5.000,0
"05/12/08","01:14:04",17255.000,"cc",28313.512,6,0.100,14558.000,0.200,2535.000,0.300,154.000,0.500,8.000,1.000,0,5.000,0
"05/12/08","01:14:10",15579.000,"cc",28323.359,6,0.100,13070.000,0.200,2323.000,0.300,175.000,0.500,10.000,1.000,1.000,5.000,0
"05/12/08","01:14:16",18853.000,"cc",28343.260,6,0.100,15757.000,0.200,2850.000,0.300,233.000,0.500,12.000,1.000,1.000,5.000,0
"05/12/08","01:14:22",14057.000,"cc",28365.701,6,0.100,11767.000,0.200,2106.000,0.300,169.000,0.500,15.000,1.000,0,5.000,0
"05/12/08","01:14:28",11662.000,"cc",28282.305,6,0.100,9687.000,0.200,1826.000,0.300,140.000,0.500,8.000,1.000,1.000,5.000,0
"05/12/08","01:14:34",16750.000,"cc",28273.369,6,0.100,14031.000,0.200,2533.000,0.300,173.000,0.500,13.000,1.000,0,5.000,0
"05/12/08","01:14:40",15347.000,"cc",28344.508,6,0.100,12797.000,0.200,2370.000,0.300,174.000,0.500,6.000,1.000,0,5.000,0
"05/12/08","01:14:46",14795.000,"cc",28286.441,6,0.100,12383.000,0.200,2230.000,0.300,167.000,0.500,13.000,1.000,2.000,5.000,0
"05/12/08","01:14:52",17688.000,"cc",28339.725,6,0.100,14792.000,0.200,2661.000,0.300,224.000,0.500,9.000,1.000,2.000,5.000,0
"05/12/08","01:14:58",15172.000,"cc",28284.350,6,0.100,12711.000,0.200,2260.000,0.300,188.000,0.500,13.000,1.000,0,5.000,0
"05/12/08","01:15:04",23187.000,"cc",28315.879,6,0.100,19557.000,0.200,3298.000,0.300,313.000,0.500,18.000,1.000,1.000,5.000,0
"05/12/08","01:15:10",16262.000,"cc",28294.752,6,0.100,13571.000,0.200,2481.000,0.300,198.000,0.500,12.000,1.000,0,5.000,0
"05/12/08","01:15:16",14008.000,"cc",28293.516,6,0.100,11668.000,0.200,2146.000,0.300,175.000,0.500,17.000,1.000,2.000,5.000,0
"05/12/08","01:15:22",11639.000,"cc",28353.389,6,0.100,9757.000,0.200,1735.000,0.300,133.000,0.500,13.000,1.000,1.000,5.000,0
"05/12/08","01:15:28",10440.000,"cc",28331.539,6,0.100,8641.000,0.200,1681.000,0.300,111.000,0.500,7.000,1.000,0,5.000,0
"05/12/08","01:15:34",15712.000,"cc",28350.318,6,0.100,12995.000,0.200,2523.000,0.300,188.000,0.500,6.000,1.000,0,5.000,0
"05/12/08","01:15:40",11899.000,"cc",28282.461,6,0.100,9828.000,0.200,1921.000,0.300,143.000,0.500,7.000,1.000,0,5.000,0
"05/12/08","01:15:46",10185.000,"cc",28347.254,6,0.100,8377.000,0.200,1686.000,0.300,116.000,0.500,6.000,1.000,0,5.000,0
"05/12/08","01:15:52",9402.000,"cc",28324.330,6,0.100,7840.000,0.200,1462.000,0.300,92.000,0.500,7.000,1.000,1.000,5.000,0
"05/12/08","01:15:58",7345.000,"cc",28288.621,6,0.100,6042.000,0.200,1191.000,0.300,108.000,0.500,3.000,1.000,1.000,5.000,0
"05/12/08","01:16:04",8497.000,"cc",28330.723,6,0.100,6971.000,0.200,1406.000,0.300,113.000,0.500,7.000,1.000,0,5.000,0
"05/12/08","01:16:10",9678.000,"cc",28292.670,6,0.100,8016.000,0.200,1518.000,0.300,132.000,0.500,10.000,1.000,2.000,5.000,0
"05/12/08","01:16:16",13046.000,"cc",28337.857,6,0.100,10898.000,0.200,1988.000,0.300,145.000,0.500,13.000,1.000,2.000,5.000,0
"05/12/08","01:16:22",11579.000,"cc",28296.773,6,0.100,9698.000,0.200,1737.000,0.300,135.000,0.500,9.000,1.000,0,5.000,0
"05/12/08","01:16:28",9214.000,"cc",28343.797,6,0.100,7639.000,0.200,1447.000,0.300,122.000,0.500,6.000,1.000,0,5.000,0
"05/12/08","01:16:34",8133.000,"cc",28338.658,6,0.100,6773.000,0.200,1254.000,0.300,98.000,0.500,8.000,1.000,0,5.000,0
"05/12/08","01:16:40",7077.000,"cc",28334.949,6,0.100,5846.000,0.200,1134.000,0.300,88.000,0.500,8.000,1.000,1.000,5.000,0
"05/12/08","01:16:46",7293.000,"cc",28333.971,6,0.100,5994.000,0.200,1191.000,0.300,99.000,0.500,7.000,1.000,2.000,5.000,0
"05/12/08","01:16:52",8626.000,"cc",28245.619,6,0.100,7083.000,0.200,1419.000,0.300,107.000,0.500,15.000,1.000,2.000,5.000,0
"05/12/08","01:16:58",11056.000,"cc",28358.174,6,0.100,9224.000,0.200,1678.000,0.300,143.000,0.500,10.000,1.000,1.000,5.000,0
"05/12/08","01:17:04",9350.000,"cc",28304.793,6,0.100,7834.000,0.200,1410.000,0.300,98.000,0.500,8.000,1.000,0,5.000,0
"05/12/08","01:17:10",15282.000,"cc",28289.549,6,0.100,12868.000,0.200,2230.000,0.300,176.000,0.500,8.000,1.000,0,5.000,0
"05/12/08","01:17:16",14470.000,"cc",28340.951,6,0.100,12118.000,0.200,2173.000,0.300,166.000,0.500,12.000,1.000,1.000,5.000,0
"05/12/08","01:17:22",13606.000,"cc",28316.527,6,0.100,11485.000,0.200,1959.000,0.300,144.000,0.500,15.000,1.000,3.000,5.000,0
"05/12/08","01:17:28",11339.000,"cc",28358.856,6,0.100,9515.000,0.200,1679.000,0.300,138.000,0.500,7.000,1.000,0,5.000,0
"05/12/08","01:17:34",9586.000,"cc",28323.154,6,0.100,8066.000,0.200,1396.000,0.300,118.000,0.500,6.000,1.000,0,5.000,0
"05/12/08","01:17:40",18856.000,"cc",28291.186,6,0.100,15976.000,0.200,2696.000,0.300,179.000,0.500,5.000,1.000,0,5.000,0
"05/12/08","01:17:46",20134.000,"cc",28283.533,6,0.100,16999.000,0.200,2927.000,0.300,194.000,0.500,14.000,1.000,0,5.000,0
"05/12/08","01:17:52",15196.000,"cc",28333.229,6,0.100,12861.000,0.200,2190.000,0.300,135.000,0.500,9.000,1.000,1.000,5.000,0
"05/12/08","01:17:58",15195.000,"cc",28311.068,6,0.100,12798.000,0.200,2248.000,0.300,138.000,0.500,11.000,1.000,0,5.000,0
"05/12/08","01:18:04",20185.000,"cc",28286.900,6,0.100,17174.000,0.200,2832.000,0.300,169.000,0.500,10.000,1.000,0,5.000,0
"05/12/08","01:18:10",13558.000,"cc",28311.938,6,0.100,11443.000,0.200,1983.000,0.300,121.000,0.500,10.000,1.000,1.000,5.000,0
"05/12/08","01:18:16",12257.000,"cc",28335.885,6,0.100,10344.000,0.200,1784.000,0.300,115.000,0.500,14.000,1.000,0,5.000,0